Location: Newark
(7.0858°N, 171.3717°E)
Time: 04:56:17
(UTC+00:00)

Vanguard 2 - Pass Details

Date: 30 November 2020
Orbit: 553 x 2937 km, 32.9° (Epoch: 26 January)

Event Time Altitude Azimuth Distance (km) Brightness Sun altitude
Rises 20:29:13 0° 260° (W) 5,513 11.5 25.8°
Reaches altitude 10° 20:34:08 10° 270° (W) 4,059 10.8 26.8°
Maximum altitude 20:42:11 27° 323° (NW) 2,213 9.6 28.6°
Drops below altitude 10° 20:47:39 10° 20° (NNE) 2,668 10.3 29.7°
Sets 20:50:11 0° 34° (NE) 3,358 10.9 30.3°
